{"data":{"norad_id":63647,"intl_designator":"2025-083P","name":"STARLINK-33729","alt_names":[],"object_type":"PAYLOAD","status":"ACTIVE","operator":null,"country":"US","launch_date":"2025-04-25","launch_site_code":"AFETR","launch_vehicle":null,"mission":null,"orbit_class":"UNKNOWN","rcs_meters":null,"size_class":null,"mass_kg":null,"dimensions":null,"purposes":["comms"],"wikipedia_slug":null,"has_3d_model":false,"image_url":null,"decayed_at":null,"tle_current":{"epoch":"2026-05-25T03:07:42.136320Z","epoch_age_seconds":53970,"freshness":"FRESH","line1":"1 63647U 25083P   26145.13034880  .00018223  00000+0  66986-3 0  9992","line2":"2 63647  43.0008 293.8442 0002136 267.7060  92.3547 15.27590794 61753","mean_motion":15.27590794,"eccentricity":0.0002136,"inclination_deg":43.0008,"raan_deg":293.8442,"arg_perigee_deg":267.706,"mean_anomaly_deg":92.3547,"bstar":0.00066986,"rev_number":6175,"period_min":94.266082622124,"perigee_km":481.55123266449,"apogee_km":484.48231755721,"semimajor_km":6861.1537751108,"source":"CELESTRAK","updated_at":"2026-05-25T13:38:20.054765Z"}}}